User: anonymous   Login
Location: Unspecified
(0.0000°N, 0.0000°E)
Time: 18:45:51
(UTC+00:00)
Language:

CAPE 1 - Orbit

View from above orbital plane
View from above orbital plane
View from above satellite
View from above satellite

Ground track
Ground track

The orbit data is extracted from the following two-line orbital elements,

1 31130U 07012P   17145.90255454 +.00000124 +00000-0 +37106-4 0  9998
2 31130 098.0792 095.6262 0094948 269.9386 089.0932 14.56131812536010
Epoch (UTC): 25 May 2017 21:39:40
Eccentricity: 0.0094948
inclination: 98.0792°
perigee height: 638 km
apogee height: 773 km
right ascension of ascending node: 95.6262°
argument of perigee: 269.9386°
revolutions per day: 14.56131812
mean anomaly at epoch: 89.0932°
orbit number at epoch: 53601

The dashed part of the orbit path shows where the satellite is in the earth's shadow,  

DLR